Index of /20260411/WXO-DD/model_gdps/15km/12/015
Name Last modified Size Description
Parent Directory -
20260411T12Z_MSC_GDPS_AbsoluteVorticity_IsbL-0200_LatLon0.15_PT015H.grib2 2026-04-11 16:12 1.2M
20260411T12Z_MSC_GDPS_AbsoluteVorticity_IsbL-0250_LatLon0.15_PT015H.grib2 2026-04-11 16:12 1.3M
20260411T12Z_MSC_GDPS_AbsoluteVorticity_IsbL-0500_LatLon0.15_PT015H.grib2 2026-04-11 16:12 1.2M
20260411T12Z_MSC_GDPS_AbsoluteVorticity_IsbL-0700_LatLon0.15_PT015H.grib2 2026-04-11 16:12 1.3M
20260411T12Z_MSC_GDPS_AbsoluteVorticity_IsbL-0850_LatLon0.15_PT015H.grib2 2026-04-11 16:12 1.6M
20260411T12Z_MSC_GDPS_AirTemp_AGL-120m_LatLon0.15_PT015H.grib2 2026-04-11 16:12 901K
20260411T12Z_MSC_GDPS_AirTemp_AGL-2m_LatLon0.15_PT015H.grib2 2026-04-11 16:12 1.2M
20260411T12Z_MSC_GDPS_AirTemp_AGL-40m_LatLon0.15_PT015H.grib2 2026-04-11 16:12 923K
20260411T12Z_MSC_GDPS_AirTemp_AGL-80m_LatLon0.15_PT015H.grib2 2026-04-11 16:12 911K
20260411T12Z_MSC_GDPS_AirTemp_IsbL-0001_LatLon0.15_PT015H.grib2 2026-04-11 16:12 646K
20260411T12Z_MSC_GDPS_AirTemp_IsbL-0005_LatLon0.15_PT015H.grib2 2026-04-11 16:12 684K
20260411T12Z_MSC_GDPS_AirTemp_IsbL-0010_LatLon0.15_PT015H.grib2 2026-04-11 16:12 761K
20260411T12Z_MSC_GDPS_AirTemp_IsbL-0020_LatLon0.15_PT015H.grib2 2026-04-11 16:12 706K
20260411T12Z_MSC_GDPS_AirTemp_IsbL-0030_LatLon0.15_PT015H.grib2 2026-04-11 16:12 754K
20260411T12Z_MSC_GDPS_AirTemp_IsbL-0050_LatLon0.15_PT015H.grib2 2026-04-11 16:12 816K
20260411T12Z_MSC_GDPS_AirTemp_IsbL-0100_LatLon0.15_PT015H.grib2 2026-04-11 16:12 948K
20260411T12Z_MSC_GDPS_AirTemp_IsbL-0150_LatLon0.15_PT015H.grib2 2026-04-11 16:12 971K
20260411T12Z_MSC_GDPS_AirTemp_IsbL-0175_LatLon0.15_PT015H.grib2 2026-04-11 16:12 962K
20260411T12Z_MSC_GDPS_AirTemp_IsbL-0200_LatLon0.15_PT015H.grib2 2026-04-11 16:12 971K
20260411T12Z_MSC_GDPS_AirTemp_IsbL-0225_LatLon0.15_PT015H.grib2 2026-04-11 16:12 1.0M
20260411T12Z_MSC_GDPS_AirTemp_IsbL-0250_LatLon0.15_PT015H.grib2 2026-04-11 16:12 1.0M
20260411T12Z_MSC_GDPS_AirTemp_IsbL-0275_LatLon0.15_PT015H.grib2 2026-04-11 16:12 1.0M
20260411T12Z_MSC_GDPS_AirTemp_IsbL-0300_LatLon0.15_PT015H.grib2 2026-04-11 16:12 1.0M
20260411T12Z_MSC_GDPS_AirTemp_IsbL-0350_LatLon0.15_PT015H.grib2 2026-04-11 16:12 933K
20260411T12Z_MSC_GDPS_AirTemp_IsbL-0400_LatLon0.15_PT015H.grib2 2026-04-11 16:12 946K
20260411T12Z_MSC_GDPS_AirTemp_IsbL-0450_LatLon0.15_PT015H.grib2 2026-04-11 16:12 964K
20260411T12Z_MSC_GDPS_AirTemp_IsbL-0500_LatLon0.15_PT015H.grib2 2026-04-11 16:12 1.0M
20260411T12Z_MSC_GDPS_AirTemp_IsbL-0550_LatLon0.15_PT015H.grib2 2026-04-11 16:12 799K
20260411T12Z_MSC_GDPS_AirTemp_IsbL-0600_LatLon0.15_PT015H.grib2 2026-04-11 16:12 891K
20260411T12Z_MSC_GDPS_AirTemp_IsbL-0650_LatLon0.15_PT015H.grib2 2026-04-11 16:12 915K
20260411T12Z_MSC_GDPS_AirTemp_IsbL-0700_LatLon0.15_PT015H.grib2 2026-04-11 16:12 945K
20260411T12Z_MSC_GDPS_AirTemp_IsbL-0750_LatLon0.15_PT015H.grib2 2026-04-11 16:12 1.0M
20260411T12Z_MSC_GDPS_AirTemp_IsbL-0800_LatLon0.15_PT015H.grib2 2026-04-11 16:12 1.1M
20260411T12Z_MSC_GDPS_AirTemp_IsbL-0850_LatLon0.15_PT015H.grib2 2026-04-11 16:12 1.1M
20260411T12Z_MSC_GDPS_AirTemp_IsbL-0875_LatLon0.15_PT015H.grib2 2026-04-11 16:12 1.1M
20260411T12Z_MSC_GDPS_AirTemp_IsbL-0900_LatLon0.15_PT015H.grib2 2026-04-11 16:12 1.1M
20260411T12Z_MSC_GDPS_AirTemp_IsbL-0925_LatLon0.15_PT015H.grib2 2026-04-11 16:12 1.1M
20260411T12Z_MSC_GDPS_AirTemp_IsbL-0950_LatLon0.15_PT015H.grib2 2026-04-11 16:12 1.1M
20260411T12Z_MSC_GDPS_AirTemp_IsbL-0970_LatLon0.15_PT015H.grib2 2026-04-11 16:12 1.1M
20260411T12Z_MSC_GDPS_AirTemp_IsbL-0985_LatLon0.15_PT015H.grib2 2026-04-11 16:12 1.1M
20260411T12Z_MSC_GDPS_AirTemp_IsbL-1000_LatLon0.15_PT015H.grib2 2026-04-11 16:12 1.1M
20260411T12Z_MSC_GDPS_AirTemp_IsbL-1015_LatLon0.15_PT015H.grib2 2026-04-11 16:12 1.1M
20260411T12Z_MSC_GDPS_Albedo_Sfc_LatLon0.15_PT015H.grib2 2026-04-11 16:12 248K
20260411T12Z_MSC_GDPS_CAPE_Sfc_LatLon0.15_PT015H.grib2 2026-04-11 16:12 3.8M
20260411T12Z_MSC_GDPS_CIN_Sfc_LatLon0.15_PT015H.grib2 2026-04-11 16:12 2.8M
20260411T12Z_MSC_GDPS_CloudWater_EAtm_LatLon0.15_PT015H.grib2 2026-04-11 16:12 522K
20260411T12Z_MSC_GDPS_ConvectivePrecip-Accum_Sfc_LatLon0.15_PT015H.grib2 2026-04-11 16:12 2.0M
20260411T12Z_MSC_GDPS_DewPointDepression_AGL-2m_LatLon0.15_PT015H.grib2 2026-04-11 16:12 746K
20260411T12Z_MSC_GDPS_DewPointDepression_IsbL-0010_LatLon0.15_PT015H.grib2 2026-04-11 16:12 2.6K
20260411T12Z_MSC_GDPS_DewPointDepression_IsbL-0020_LatLon0.15_PT015H.grib2 2026-04-11 16:12 66K
20260411T12Z_MSC_GDPS_DewPointDepression_IsbL-0030_LatLon0.15_PT015H.grib2 2026-04-11 16:12 60K
20260411T12Z_MSC_GDPS_DewPointDepression_IsbL-0050_LatLon0.15_PT015H.grib2 2026-04-11 16:12 352K
20260411T12Z_MSC_GDPS_DewPointDepression_IsbL-0100_LatLon0.15_PT015H.grib2 2026-04-11 16:12 366K
20260411T12Z_MSC_GDPS_DewPointDepression_IsbL-0150_LatLon0.15_PT015H.grib2 2026-04-11 16:12 440K
20260411T12Z_MSC_GDPS_DewPointDepression_IsbL-0175_LatLon0.15_PT015H.grib2 2026-04-11 16:12 505K
20260411T12Z_MSC_GDPS_DewPointDepression_IsbL-0200_LatLon0.15_PT015H.grib2 2026-04-11 16:12 617K
20260411T12Z_MSC_GDPS_DewPointDepression_IsbL-0225_LatLon0.15_PT015H.grib2 2026-04-11 16:12 753K
20260411T12Z_MSC_GDPS_DewPointDepression_IsbL-0250_LatLon0.15_PT015H.grib2 2026-04-11 16:12 867K
20260411T12Z_MSC_GDPS_DewPointDepression_IsbL-0275_LatLon0.15_PT015H.grib2 2026-04-11 16:12 895K
20260411T12Z_MSC_GDPS_DewPointDepression_IsbL-0300_LatLon0.15_PT015H.grib2 2026-04-11 16:12 939K
20260411T12Z_MSC_GDPS_DewPointDepression_IsbL-0350_LatLon0.15_PT015H.grib2 2026-04-11 16:12 959K
20260411T12Z_MSC_GDPS_DewPointDepression_IsbL-0400_LatLon0.15_PT015H.grib2 2026-04-11 16:12 1.0M
20260411T12Z_MSC_GDPS_DewPointDepression_IsbL-0450_LatLon0.15_PT015H.grib2 2026-04-11 16:12 1.0M
20260411T12Z_MSC_GDPS_DewPointDepression_IsbL-0500_LatLon0.15_PT015H.grib2 2026-04-11 16:12 1.0M
20260411T12Z_MSC_GDPS_DewPointDepression_IsbL-0550_LatLon0.15_PT015H.grib2 2026-04-11 16:12 1.0M
20260411T12Z_MSC_GDPS_DewPointDepression_IsbL-0600_LatLon0.15_PT015H.grib2 2026-04-11 16:12 1.0M
20260411T12Z_MSC_GDPS_DewPointDepression_IsbL-0650_LatLon0.15_PT015H.grib2 2026-04-11 16:12 1.0M
20260411T12Z_MSC_GDPS_DewPointDepression_IsbL-0700_LatLon0.15_PT015H.grib2 2026-04-11 16:12 1.0M
20260411T12Z_MSC_GDPS_DewPointDepression_IsbL-0750_LatLon0.15_PT015H.grib2 2026-04-11 16:12 1.1M
20260411T12Z_MSC_GDPS_DewPointDepression_IsbL-0800_LatLon0.15_PT015H.grib2 2026-04-11 16:12 1.1M
20260411T12Z_MSC_GDPS_DewPointDepression_IsbL-0850_LatLon0.15_PT015H.grib2 2026-04-11 16:12 1.2M
20260411T12Z_MSC_GDPS_DewPointDepression_IsbL-0875_LatLon0.15_PT015H.grib2 2026-04-11 16:12 1.1M
20260411T12Z_MSC_GDPS_DewPointDepression_IsbL-0900_LatLon0.15_PT015H.grib2 2026-04-11 16:12 1.1M
20260411T12Z_MSC_GDPS_DewPointDepression_IsbL-0925_LatLon0.15_PT015H.grib2 2026-04-11 16:12 1.0M
20260411T12Z_MSC_GDPS_DewPointDepression_IsbL-0950_LatLon0.15_PT015H.grib2 2026-04-11 16:12 1.0M
20260411T12Z_MSC_GDPS_DewPointDepression_IsbL-0970_LatLon0.15_PT015H.grib2 2026-04-11 16:12 1.0M
20260411T12Z_MSC_GDPS_DewPointDepression_IsbL-0985_LatLon0.15_PT015H.grib2 2026-04-11 16:12 1.0M
20260411T12Z_MSC_GDPS_DewPointDepression_IsbL-1000_LatLon0.15_PT015H.grib2 2026-04-11 16:12 965K
20260411T12Z_MSC_GDPS_DewPointDepression_IsbL-1015_LatLon0.15_PT015H.grib2 2026-04-11 16:12 906K
20260411T12Z_MSC_GDPS_DewPoint_AGL-2m_LatLon0.15_PT015H.grib2 2026-04-11 16:12 602K
20260411T12Z_MSC_GDPS_DownwardLongwaveRadiationFlux-Accum_Sfc_LatLon0.15_PT015H.grib2 2026-04-11 16:12 816K
20260411T12Z_MSC_GDPS_DownwardShortwaveRadiationFlux-Accum_NTAtm_LatLon0.15_PT015H.grib2 2026-04-11 16:12 375K
20260411T12Z_MSC_GDPS_DownwardShortwaveRadiationFlux-Accum_Sfc_LatLon0.15_PT015H.grib2 2026-04-11 16:12 1.0M
20260411T12Z_MSC_GDPS_FreezingRain-Accum1h_Sfc_LatLon0.15_PT015H.grib2 2026-04-11 16:12 45K
20260411T12Z_MSC_GDPS_FreezingRain-Accum3h_Sfc_LatLon0.15_PT015H.grib2 2026-04-11 16:12 42K
20260411T12Z_MSC_GDPS_FreezingRain-Accum_Sfc_LatLon0.15_PT015H.grib2 2026-04-11 16:12 101K
20260411T12Z_MSC_GDPS_GeopotentialHeight_IsbL-0001_LatLon0.15_PT015H.grib2 2026-04-11 16:12 539K
20260411T12Z_MSC_GDPS_GeopotentialHeight_IsbL-0005_LatLon0.15_PT015H.grib2 2026-04-11 16:12 440K
20260411T12Z_MSC_GDPS_GeopotentialHeight_IsbL-0010_LatLon0.15_PT015H.grib2 2026-04-11 16:12 573K
20260411T12Z_MSC_GDPS_GeopotentialHeight_IsbL-0020_LatLon0.15_PT015H.grib2 2026-04-11 16:12 574K
20260411T12Z_MSC_GDPS_GeopotentialHeight_IsbL-0030_LatLon0.15_PT015H.grib2 2026-04-11 16:12 581K
20260411T12Z_MSC_GDPS_GeopotentialHeight_IsbL-0050_LatLon0.15_PT015H.grib2 2026-04-11 16:12 511K
20260411T12Z_MSC_GDPS_GeopotentialHeight_IsbL-0100_LatLon0.15_PT015H.grib2 2026-04-11 16:12 616K
20260411T12Z_MSC_GDPS_GeopotentialHeight_IsbL-0150_LatLon0.15_PT015H.grib2 2026-04-11 16:12 633K
20260411T12Z_MSC_GDPS_GeopotentialHeight_IsbL-0175_LatLon0.15_PT015H.grib2 2026-04-11 16:12 635K
20260411T12Z_MSC_GDPS_GeopotentialHeight_IsbL-0200_LatLon0.15_PT015H.grib2 2026-04-11 16:12 638K
20260411T12Z_MSC_GDPS_GeopotentialHeight_IsbL-0225_LatLon0.15_PT015H.grib2 2026-04-11 16:12 641K
20260411T12Z_MSC_GDPS_GeopotentialHeight_IsbL-0250_LatLon0.15_PT015H.grib2 2026-04-11 16:12 644K
20260411T12Z_MSC_GDPS_GeopotentialHeight_IsbL-0275_LatLon0.15_PT015H.grib2 2026-04-11 16:12 641K
20260411T12Z_MSC_GDPS_GeopotentialHeight_IsbL-0300_LatLon0.15_PT015H.grib2 2026-04-11 16:12 639K
20260411T12Z_MSC_GDPS_GeopotentialHeight_IsbL-0350_LatLon0.15_PT015H.grib2 2026-04-11 16:12 626K
20260411T12Z_MSC_GDPS_GeopotentialHeight_IsbL-0400_LatLon0.15_PT015H.grib2 2026-04-11 16:12 619K
20260411T12Z_MSC_GDPS_GeopotentialHeight_IsbL-0450_LatLon0.15_PT015H.grib2 2026-04-11 16:12 538K
20260411T12Z_MSC_GDPS_GeopotentialHeight_IsbL-0500_LatLon0.15_PT015H.grib2 2026-04-11 16:12 529K
20260411T12Z_MSC_GDPS_GeopotentialHeight_IsbL-0550_LatLon0.15_PT015H.grib2 2026-04-11 16:12 690K
20260411T12Z_MSC_GDPS_GeopotentialHeight_IsbL-0600_LatLon0.15_PT015H.grib2 2026-04-11 16:12 683K
20260411T12Z_MSC_GDPS_GeopotentialHeight_IsbL-0650_LatLon0.15_PT015H.grib2 2026-04-11 16:12 683K
20260411T12Z_MSC_GDPS_GeopotentialHeight_IsbL-0700_LatLon0.15_PT015H.grib2 2026-04-11 16:12 685K
20260411T12Z_MSC_GDPS_GeopotentialHeight_IsbL-0750_LatLon0.15_PT015H.grib2 2026-04-11 16:12 690K
20260411T12Z_MSC_GDPS_GeopotentialHeight_IsbL-0800_LatLon0.15_PT015H.grib2 2026-04-11 16:12 700K
20260411T12Z_MSC_GDPS_GeopotentialHeight_IsbL-0850_LatLon0.15_PT015H.grib2 2026-04-11 16:12 708K
20260411T12Z_MSC_GDPS_GeopotentialHeight_IsbL-0875_LatLon0.15_PT015H.grib2 2026-04-11 16:12 712K
20260411T12Z_MSC_GDPS_GeopotentialHeight_IsbL-0900_LatLon0.15_PT015H.grib2 2026-04-11 16:12 720K
20260411T12Z_MSC_GDPS_GeopotentialHeight_IsbL-0925_LatLon0.15_PT015H.grib2 2026-04-11 16:12 728K
20260411T12Z_MSC_GDPS_GeopotentialHeight_IsbL-0950_LatLon0.15_PT015H.grib2 2026-04-11 16:12 736K
20260411T12Z_MSC_GDPS_GeopotentialHeight_IsbL-0970_LatLon0.15_PT015H.grib2 2026-04-11 16:12 746K
20260411T12Z_MSC_GDPS_GeopotentialHeight_IsbL-0985_LatLon0.15_PT015H.grib2 2026-04-11 16:12 761K
20260411T12Z_MSC_GDPS_GeopotentialHeight_IsbL-1000_LatLon0.15_PT015H.grib2 2026-04-11 16:12 781K
20260411T12Z_MSC_GDPS_GeopotentialHeight_IsbL-1015_LatLon0.15_PT015H.grib2 2026-04-11 16:12 803K
20260411T12Z_MSC_GDPS_Humidex_Sfc_LatLon0.15_PT015H.grib2 2026-04-11 16:12 5.3M
20260411T12Z_MSC_GDPS_IcePellets-Accum1h_Sfc_LatLon0.15_PT015H.grib2 2026-04-11 16:12 12K
20260411T12Z_MSC_GDPS_IcePellets-Accum3h_Sfc_LatLon0.15_PT015H.grib2 2026-04-11 16:12 14K
20260411T12Z_MSC_GDPS_IcePellets-Accum_Sfc_LatLon0.15_PT015H.grib2 2026-04-11 16:12 35K
20260411T12Z_MSC_GDPS_KIndex_Sfc_LatLon0.15_PT015H.grib2 2026-04-11 16:12 6.5M
20260411T12Z_MSC_GDPS_LatentHeatNetFlux_Sfc_LatLon0.15_PT015H.grib2 2026-04-11 16:12 658K
20260411T12Z_MSC_GDPS_LiftedIndex-MU-VT_IsbL-0500_LatLon0.15_PT015H.grib2 2026-04-11 16:12 5.3M
20260411T12Z_MSC_GDPS_NetLongwaveRadiationFlux-Accum_Sfc_LatLon0.15_PT015H.grib2 2026-04-11 16:12 1.0M
20260411T12Z_MSC_GDPS_NetShortwaveRadiationFlux-Accum_Sfc_LatLon0.15_PT015H.grib2 2026-04-11 16:12 1.0M
20260411T12Z_MSC_GDPS_O3MixingRatio_LatLon0.15_PT015H.grib2 2026-04-11 17:04 2.1M
20260411T12Z_MSC_GDPS_O3_EAtm_LatLon0.15_PT015H.grib2 2026-04-11 17:04 2.1M
20260411T12Z_MSC_GDPS_PlanetaryBoundaryLayerHeight_Sfc_LatLon0.15_PT015H.grib2 2026-04-11 16:12 2.4M
20260411T12Z_MSC_GDPS_Precip-Accum1h_Sfc_LatLon0.15_PT015H.grib2 2026-04-11 16:12 3.1M
20260411T12Z_MSC_GDPS_Precip-Accum3h_Sfc_LatLon0.15_PT015H.grib2 2026-04-11 16:12 3.4M
20260411T12Z_MSC_GDPS_Precip-Accum_Sfc_LatLon0.15_PT015H.grib2 2026-04-11 16:12 4.0M
20260411T12Z_MSC_GDPS_PrecipRate_Sfc_LatLon0.15_PT015H.grib2 2026-04-11 16:12 3.0M
20260411T12Z_MSC_GDPS_PrecipType-Instant_Sfc_LatLon0.15_PT015H.grib2 2026-04-11 16:12 1.4M
20260411T12Z_MSC_GDPS_Pressure_MSL_LatLon0.15_PT015H.grib2 2026-04-11 16:12 713K
20260411T12Z_MSC_GDPS_Pressure_PVU-1.5_LatLon0.15_PT015H.grib2 2026-04-11 16:12 5.8M
20260411T12Z_MSC_GDPS_Pressure_PVU-1_LatLon0.15_PT015H.grib2 2026-04-11 16:12 6.0M
20260411T12Z_MSC_GDPS_Pressure_PVU-2_LatLon0.15_PT015H.grib2 2026-04-11 16:12 5.6M
20260411T12Z_MSC_GDPS_Pressure_Sfc_LatLon0.15_PT015H.grib2 2026-04-11 16:12 1.1M
20260411T12Z_MSC_GDPS_RadiativeTemp_Sfc_LatLon0.15_PT015H.grib2 2026-04-11 16:12 655K
20260411T12Z_MSC_GDPS_Rain-Accum1h_Sfc_LatLon0.15_PT015H.grib2 2026-04-11 16:12 1.5M
20260411T12Z_MSC_GDPS_Rain-Accum3h_Sfc_LatLon0.15_PT015H.grib2 2026-04-11 16:12 1.7M
20260411T12Z_MSC_GDPS_Rain-Accum_Sfc_LatLon0.15_PT015H.grib2 2026-04-11 16:12 2.8M
20260411T12Z_MSC_GDPS_RelativeHumidity_AGL-2m_LatLon0.15_PT015H.grib2 2026-04-11 16:12 1.0M
20260411T12Z_MSC_GDPS_RelativeHumidity_IsbL-0010_LatLon0.15_PT015H.grib2 2026-04-11 16:12 375K
20260411T12Z_MSC_GDPS_RelativeHumidity_IsbL-0020_LatLon0.15_PT015H.grib2 2026-04-11 16:12 404K
20260411T12Z_MSC_GDPS_RelativeHumidity_IsbL-0030_LatLon0.15_PT015H.grib2 2026-04-11 16:12 534K
20260411T12Z_MSC_GDPS_RelativeHumidity_IsbL-0050_LatLon0.15_PT015H.grib2 2026-04-11 16:12 326K
20260411T12Z_MSC_GDPS_RelativeHumidity_IsbL-0100_LatLon0.15_PT015H.grib2 2026-04-11 16:12 497K
20260411T12Z_MSC_GDPS_RelativeHumidity_IsbL-0150_LatLon0.15_PT015H.grib2 2026-04-11 16:12 643K
20260411T12Z_MSC_GDPS_RelativeHumidity_IsbL-0175_LatLon0.15_PT015H.grib2 2026-04-11 16:12 749K
20260411T12Z_MSC_GDPS_RelativeHumidity_IsbL-0200_LatLon0.15_PT015H.grib2 2026-04-11 16:12 665K
20260411T12Z_MSC_GDPS_RelativeHumidity_IsbL-0225_LatLon0.15_PT015H.grib2 2026-04-11 16:12 755K
20260411T12Z_MSC_GDPS_RelativeHumidity_IsbL-0250_LatLon0.15_PT015H.grib2 2026-04-11 16:12 840K
20260411T12Z_MSC_GDPS_RelativeHumidity_IsbL-0275_LatLon0.15_PT015H.grib2 2026-04-11 16:12 869K
20260411T12Z_MSC_GDPS_RelativeHumidity_IsbL-0300_LatLon0.15_PT015H.grib2 2026-04-11 16:12 917K
20260411T12Z_MSC_GDPS_RelativeHumidity_IsbL-0350_LatLon0.15_PT015H.grib2 2026-04-11 16:12 943K
20260411T12Z_MSC_GDPS_RelativeHumidity_IsbL-0400_LatLon0.15_PT015H.grib2 2026-04-11 16:12 967K
20260411T12Z_MSC_GDPS_RelativeHumidity_IsbL-0450_LatLon0.15_PT015H.grib2 2026-04-11 16:12 1.0M
20260411T12Z_MSC_GDPS_RelativeHumidity_IsbL-0500_LatLon0.15_PT015H.grib2 2026-04-11 16:12 1.0M
20260411T12Z_MSC_GDPS_RelativeHumidity_IsbL-0550_LatLon0.15_PT015H.grib2 2026-04-11 16:12 1.1M
20260411T12Z_MSC_GDPS_RelativeHumidity_IsbL-0600_LatLon0.15_PT015H.grib2 2026-04-11 16:12 1.1M
20260411T12Z_MSC_GDPS_RelativeHumidity_IsbL-0650_LatLon0.15_PT015H.grib2 2026-04-11 16:12 1.1M
20260411T12Z_MSC_GDPS_RelativeHumidity_IsbL-0700_LatLon0.15_PT015H.grib2 2026-04-11 16:12 1.1M
20260411T12Z_MSC_GDPS_RelativeHumidity_IsbL-0750_LatLon0.15_PT015H.grib2 2026-04-11 16:12 1.2M
20260411T12Z_MSC_GDPS_RelativeHumidity_IsbL-0800_LatLon0.15_PT015H.grib2 2026-04-11 16:12 1.2M
20260411T12Z_MSC_GDPS_RelativeHumidity_IsbL-0850_LatLon0.15_PT015H.grib2 2026-04-11 16:12 1.3M
20260411T12Z_MSC_GDPS_RelativeHumidity_IsbL-0875_LatLon0.15_PT015H.grib2 2026-04-11 16:12 1.3M
20260411T12Z_MSC_GDPS_RelativeHumidity_IsbL-0900_LatLon0.15_PT015H.grib2 2026-04-11 16:12 1.2M
20260411T12Z_MSC_GDPS_RelativeHumidity_IsbL-0925_LatLon0.15_PT015H.grib2 2026-04-11 16:12 1.2M
20260411T12Z_MSC_GDPS_RelativeHumidity_IsbL-0950_LatLon0.15_PT015H.grib2 2026-04-11 16:12 1.2M
20260411T12Z_MSC_GDPS_RelativeHumidity_IsbL-0970_LatLon0.15_PT015H.grib2 2026-04-11 16:12 1.2M
20260411T12Z_MSC_GDPS_RelativeHumidity_IsbL-0985_LatLon0.15_PT015H.grib2 2026-04-11 16:12 1.1M
20260411T12Z_MSC_GDPS_RelativeHumidity_IsbL-1000_LatLon0.15_PT015H.grib2 2026-04-11 16:12 1.1M
20260411T12Z_MSC_GDPS_RelativeHumidity_IsbL-1015_LatLon0.15_PT015H.grib2 2026-04-11 16:12 1.0M
20260411T12Z_MSC_GDPS_RelativeVorticity_IsbL-0200_LatLon0.15_PT015H.grib2 2026-04-11 16:12 1.2M
20260411T12Z_MSC_GDPS_RelativeVorticity_IsbL-0250_LatLon0.15_PT015H.grib2 2026-04-11 16:12 1.3M
20260411T12Z_MSC_GDPS_RelativeVorticity_IsbL-0500_LatLon0.15_PT015H.grib2 2026-04-11 16:12 1.5M
20260411T12Z_MSC_GDPS_RelativeVorticity_IsbL-0700_LatLon0.15_PT015H.grib2 2026-04-11 16:12 1.6M
20260411T12Z_MSC_GDPS_RelativeVorticity_IsbL-0850_LatLon0.15_PT015H.grib2 2026-04-11 16:12 1.9M
20260411T12Z_MSC_GDPS_Runoff-Accum_Sfc_LatLon0.15_PT015H.grib2 2026-04-11 16:12 75K
20260411T12Z_MSC_GDPS_SensibleHeatNetFlux_Sfc_LatLon0.15_PT015H.grib2 2026-04-11 16:12 614K
20260411T12Z_MSC_GDPS_ShowalterIndex_IsbL-0500_LatLon0.15_PT015H.grib2 2026-04-11 16:12 6.2M
20260411T12Z_MSC_GDPS_Snow-Accum1h_Sfc_LatLon0.15_PT015H.grib2 2026-04-11 16:12 1.0M
20260411T12Z_MSC_GDPS_Snow-Accum3h_Sfc_LatLon0.15_PT015H.grib2 2026-04-11 16:12 1.1M
20260411T12Z_MSC_GDPS_Snow-Accum_Sfc_LatLon0.15_PT015H.grib2 2026-04-11 16:12 1.7M
20260411T12Z_MSC_GDPS_SnowDensity_Sfc_LatLon0.15_PT015H.grib2 2026-04-11 16:12 263K
20260411T12Z_MSC_GDPS_SnowDepth_Sfc_LatLon0.15_PT015H.grib2 2026-04-11 16:12 1.8M
20260411T12Z_MSC_GDPS_SoilTemp_DBS-0to10cm_LatLon0.15_PT015H.grib2 2026-04-11 16:12 494K
20260411T12Z_MSC_GDPS_SoilTemp_Sfc_LatLon0.15_PT015H.grib2 2026-04-11 16:12 574K
20260411T12Z_MSC_GDPS_SoilVolumetricIceContent_Sfc_LatLon0.15_PT015H.grib2 2026-04-11 16:12 231K
20260411T12Z_MSC_GDPS_SoilVolumetricWaterContent_DBS-0to10cm_LatLon0.15_PT015H.grib2 2026-04-11 16:12 550K
20260411T12Z_MSC_GDPS_SoilVolumetricWaterContent_DBS-0to1cm_LatLon0.15_PT015H.grib2 2026-04-11 16:12 651K
20260411T12Z_MSC_GDPS_SpecificHumidity_AGL-120m_LatLon0.15_PT015H.grib2 2026-04-11 16:12 1.1M
20260411T12Z_MSC_GDPS_SpecificHumidity_AGL-2m_LatLon0.15_PT015H.grib2 2026-04-11 16:12 1.2M
20260411T12Z_MSC_GDPS_SpecificHumidity_AGL-40m_LatLon0.15_PT015H.grib2 2026-04-11 16:12 1.1M
20260411T12Z_MSC_GDPS_SpecificHumidity_AGL-80m_LatLon0.15_PT015H.grib2 2026-04-11 16:12 1.1M
20260411T12Z_MSC_GDPS_SpecificHumidity_IsbL-0001_LatLon0.15_PT015H.grib2 2026-04-11 16:12 1.3M
20260411T12Z_MSC_GDPS_SpecificHumidity_IsbL-0005_LatLon0.15_PT015H.grib2 2026-04-11 16:12 1.2M
20260411T12Z_MSC_GDPS_SpecificHumidity_IsbL-0010_LatLon0.15_PT015H.grib2 2026-04-11 16:12 1.4M
20260411T12Z_MSC_GDPS_SpecificHumidity_IsbL-0020_LatLon0.15_PT015H.grib2 2026-04-11 16:12 1.4M
20260411T12Z_MSC_GDPS_SpecificHumidity_IsbL-0030_LatLon0.15_PT015H.grib2 2026-04-11 16:12 1.4M
20260411T12Z_MSC_GDPS_SpecificHumidity_IsbL-0050_LatLon0.15_PT015H.grib2 2026-04-11 16:12 1.4M
20260411T12Z_MSC_GDPS_SpecificHumidity_IsbL-0100_LatLon0.15_PT015H.grib2 2026-04-11 16:12 1.3M
20260411T12Z_MSC_GDPS_SpecificHumidity_IsbL-0150_LatLon0.15_PT015H.grib2 2026-04-11 16:12 1.2M
20260411T12Z_MSC_GDPS_SpecificHumidity_IsbL-0175_LatLon0.15_PT015H.grib2 2026-04-11 16:12 1.3M
20260411T12Z_MSC_GDPS_SpecificHumidity_IsbL-0200_LatLon0.15_PT015H.grib2 2026-04-11 16:12 1.3M
20260411T12Z_MSC_GDPS_SpecificHumidity_IsbL-0225_LatLon0.15_PT015H.grib2 2026-04-11 16:12 1.3M
20260411T12Z_MSC_GDPS_SpecificHumidity_IsbL-0250_LatLon0.15_PT015H.grib2 2026-04-11 16:12 1.2M
20260411T12Z_MSC_GDPS_SpecificHumidity_IsbL-0275_LatLon0.15_PT015H.grib2 2026-04-11 16:12 1.1M
20260411T12Z_MSC_GDPS_SpecificHumidity_IsbL-0300_LatLon0.15_PT015H.grib2 2026-04-11 16:12 1.2M
20260411T12Z_MSC_GDPS_SpecificHumidity_IsbL-0350_LatLon0.15_PT015H.grib2 2026-04-11 16:12 1.2M
20260411T12Z_MSC_GDPS_SpecificHumidity_IsbL-0400_LatLon0.15_PT015H.grib2 2026-04-11 16:12 1.4M
20260411T12Z_MSC_GDPS_SpecificHumidity_IsbL-0450_LatLon0.15_PT015H.grib2 2026-04-11 16:12 1.3M
20260411T12Z_MSC_GDPS_SpecificHumidity_IsbL-0500_LatLon0.15_PT015H.grib2 2026-04-11 16:12 1.4M
20260411T12Z_MSC_GDPS_SpecificHumidity_IsbL-0550_LatLon0.15_PT015H.grib2 2026-04-11 16:12 1.6M
20260411T12Z_MSC_GDPS_SpecificHumidity_IsbL-0600_LatLon0.15_PT015H.grib2 2026-04-11 16:12 1.4M
20260411T12Z_MSC_GDPS_SpecificHumidity_IsbL-0650_LatLon0.15_PT015H.grib2 2026-04-11 16:12 1.5M
20260411T12Z_MSC_GDPS_SpecificHumidity_IsbL-0700_LatLon0.15_PT015H.grib2 2026-04-11 16:12 1.6M
20260411T12Z_MSC_GDPS_SpecificHumidity_IsbL-0750_LatLon0.15_PT015H.grib2 2026-04-11 16:12 1.7M
20260411T12Z_MSC_GDPS_SpecificHumidity_IsbL-0800_LatLon0.15_PT015H.grib2 2026-04-11 16:12 1.8M
20260411T12Z_MSC_GDPS_SpecificHumidity_IsbL-0850_LatLon0.15_PT015H.grib2 2026-04-11 16:12 1.9M
20260411T12Z_MSC_GDPS_SpecificHumidity_IsbL-0875_LatLon0.15_PT015H.grib2 2026-04-11 16:12 1.9M
20260411T12Z_MSC_GDPS_SpecificHumidity_IsbL-0900_LatLon0.15_PT015H.grib2 2026-04-11 16:12 1.9M
20260411T12Z_MSC_GDPS_SpecificHumidity_IsbL-0925_LatLon0.15_PT015H.grib2 2026-04-11 16:12 1.6M
20260411T12Z_MSC_GDPS_SpecificHumidity_IsbL-0950_LatLon0.15_PT015H.grib2 2026-04-11 16:12 1.5M
20260411T12Z_MSC_GDPS_SpecificHumidity_IsbL-0970_LatLon0.15_PT015H.grib2 2026-04-11 16:12 1.5M
20260411T12Z_MSC_GDPS_SpecificHumidity_IsbL-0985_LatLon0.15_PT015H.grib2 2026-04-11 16:12 1.5M
20260411T12Z_MSC_GDPS_SpecificHumidity_IsbL-1000_LatLon0.15_PT015H.grib2 2026-04-11 16:12 1.5M
20260411T12Z_MSC_GDPS_SpecificHumidity_IsbL-1015_LatLon0.15_PT015H.grib2 2026-04-11 16:12 1.4M
20260411T12Z_MSC_GDPS_SpecificHumidity_Sfc_LatLon0.15_PT015H.grib2 2026-04-11 16:12 614K
20260411T12Z_MSC_GDPS_Thickness_IsbL-0850to0700_LatLon0.15_PT015H.grib2 2026-04-11 16:12 468K
20260411T12Z_MSC_GDPS_Thickness_IsbL-1000to0500_LatLon0.15_PT015H.grib2 2026-04-11 16:12 333K
20260411T12Z_MSC_GDPS_Thickness_IsbL-1000to0850_LatLon0.15_PT015H.grib2 2026-04-11 16:12 485K
20260411T12Z_MSC_GDPS_TotalCloudCover_Sfc_LatLon0.15_PT015H.grib2 2026-04-11 16:12 822K
20260411T12Z_MSC_GDPS_TotalTotalsIndex_Sfc_LatLon0.15_PT015H.grib2 2026-04-11 16:12 6.2M
20260411T12Z_MSC_GDPS_UVIndex-ClearSky_Sfc_LatLon0.15_PT015H.grib2 2026-04-11 17:04 1.0M
20260411T12Z_MSC_GDPS_UVIndex_Sfc_LatLon0.15_PT015H.grib2 2026-04-11 17:04 1.4M
20260411T12Z_MSC_GDPS_UpwardLongwaveRadiationFlux_NTAtm_LatLon0.15_PT015H.grib2 2026-04-11 16:12 1.0M
20260411T12Z_MSC_GDPS_VerticalVelocity_IsbL-0200_LatLon0.15_PT015H.grib2 2026-04-11 16:12 1.0M
20260411T12Z_MSC_GDPS_VerticalVelocity_IsbL-0250_LatLon0.15_PT015H.grib2 2026-04-11 16:12 1.1M
20260411T12Z_MSC_GDPS_VerticalVelocity_IsbL-0500_LatLon0.15_PT015H.grib2 2026-04-11 16:12 1.3M
20260411T12Z_MSC_GDPS_VerticalVelocity_IsbL-0600_LatLon0.15_PT015H.grib2 2026-04-11 16:12 1.3M
20260411T12Z_MSC_GDPS_VerticalVelocity_IsbL-0700_LatLon0.15_PT015H.grib2 2026-04-11 16:12 1.4M
20260411T12Z_MSC_GDPS_VerticalVelocity_IsbL-0850_LatLon0.15_PT015H.grib2 2026-04-11 16:12 1.6M
20260411T12Z_MSC_GDPS_WindChill_Sfc_LatLon0.15_PT015H.grib2 2026-04-11 16:12 5.4M
20260411T12Z_MSC_GDPS_WindDir_AGL-10m_LatLon0.15_PT015H.grib2 2026-04-11 16:12 1.3M
20260411T12Z_MSC_GDPS_WindDir_AGL-120m_LatLon0.15_PT015H.grib2 2026-04-11 16:12 1.3M
20260411T12Z_MSC_GDPS_WindDir_AGL-40m_LatLon0.15_PT015H.grib2 2026-04-11 16:12 1.4M
20260411T12Z_MSC_GDPS_WindDir_AGL-80m_LatLon0.15_PT015H.grib2 2026-04-11 16:12 1.4M
20260411T12Z_MSC_GDPS_WindDir_IsbL-0001_LatLon0.15_PT015H.grib2 2026-04-11 16:12 622K
20260411T12Z_MSC_GDPS_WindDir_IsbL-0005_LatLon0.15_PT015H.grib2 2026-04-11 16:12 773K
20260411T12Z_MSC_GDPS_WindDir_IsbL-0010_LatLon0.15_PT015H.grib2 2026-04-11 16:12 879K
20260411T12Z_MSC_GDPS_WindDir_IsbL-0020_LatLon0.15_PT015H.grib2 2026-04-11 16:12 928K
20260411T12Z_MSC_GDPS_WindDir_IsbL-0030_LatLon0.15_PT015H.grib2 2026-04-11 16:12 890K
20260411T12Z_MSC_GDPS_WindDir_IsbL-0050_LatLon0.15_PT015H.grib2 2026-04-11 16:12 958K
20260411T12Z_MSC_GDPS_WindDir_IsbL-0100_LatLon0.15_PT015H.grib2 2026-04-11 16:12 1.0M
20260411T12Z_MSC_GDPS_WindDir_IsbL-0150_LatLon0.15_PT015H.grib2 2026-04-11 16:12 1.0M
20260411T12Z_MSC_GDPS_WindDir_IsbL-0175_LatLon0.15_PT015H.grib2 2026-04-11 16:12 1.0M
20260411T12Z_MSC_GDPS_WindDir_IsbL-0200_LatLon0.15_PT015H.grib2 2026-04-11 16:12 1.1M
20260411T12Z_MSC_GDPS_WindDir_IsbL-0225_LatLon0.15_PT015H.grib2 2026-04-11 16:12 1.1M
20260411T12Z_MSC_GDPS_WindDir_IsbL-0250_LatLon0.15_PT015H.grib2 2026-04-11 16:12 1.1M
20260411T12Z_MSC_GDPS_WindDir_IsbL-0275_LatLon0.15_PT015H.grib2 2026-04-11 16:12 1.2M
20260411T12Z_MSC_GDPS_WindDir_IsbL-0300_LatLon0.15_PT015H.grib2 2026-04-11 16:12 1.2M
20260411T12Z_MSC_GDPS_WindDir_IsbL-0350_LatLon0.15_PT015H.grib2 2026-04-11 16:12 1.2M
20260411T12Z_MSC_GDPS_WindDir_IsbL-0400_LatLon0.15_PT015H.grib2 2026-04-11 16:12 1.3M
20260411T12Z_MSC_GDPS_WindDir_IsbL-0450_LatLon0.15_PT015H.grib2 2026-04-11 16:12 1.3M
20260411T12Z_MSC_GDPS_WindDir_IsbL-0500_LatLon0.15_PT015H.grib2 2026-04-11 16:12 1.3M
20260411T12Z_MSC_GDPS_WindDir_IsbL-0550_LatLon0.15_PT015H.grib2 2026-04-11 16:12 1.4M
20260411T12Z_MSC_GDPS_WindDir_IsbL-0600_LatLon0.15_PT015H.grib2 2026-04-11 16:12 1.4M
20260411T12Z_MSC_GDPS_WindDir_IsbL-0650_LatLon0.15_PT015H.grib2 2026-04-11 16:12 1.5M
20260411T12Z_MSC_GDPS_WindDir_IsbL-0700_LatLon0.15_PT015H.grib2 2026-04-11 16:12 1.6M
20260411T12Z_MSC_GDPS_WindDir_IsbL-0750_LatLon0.15_PT015H.grib2 2026-04-11 16:12 1.7M
20260411T12Z_MSC_GDPS_WindDir_IsbL-0800_LatLon0.15_PT015H.grib2 2026-04-11 16:12 1.8M
20260411T12Z_MSC_GDPS_WindDir_IsbL-0850_LatLon0.15_PT015H.grib2 2026-04-11 16:12 1.9M
20260411T12Z_MSC_GDPS_WindDir_IsbL-0875_LatLon0.15_PT015H.grib2 2026-04-11 16:12 1.9M
20260411T12Z_MSC_GDPS_WindDir_IsbL-0900_LatLon0.15_PT015H.grib2 2026-04-11 16:12 1.9M
20260411T12Z_MSC_GDPS_WindDir_IsbL-0925_LatLon0.15_PT015H.grib2 2026-04-11 16:12 1.9M
20260411T12Z_MSC_GDPS_WindDir_IsbL-0950_LatLon0.15_PT015H.grib2 2026-04-11 16:12 2.0M
20260411T12Z_MSC_GDPS_WindDir_IsbL-0970_LatLon0.15_PT015H.grib2 2026-04-11 16:12 2.0M
20260411T12Z_MSC_GDPS_WindDir_IsbL-0985_LatLon0.15_PT015H.grib2 2026-04-11 16:12 2.0M
20260411T12Z_MSC_GDPS_WindDir_IsbL-1000_LatLon0.15_PT015H.grib2 2026-04-11 16:12 2.0M
20260411T12Z_MSC_GDPS_WindDir_IsbL-1015_LatLon0.15_PT015H.grib2 2026-04-11 16:12 2.0M
20260411T12Z_MSC_GDPS_WindGust-Max_AGL-10m_LatLon0.15_PT015H.grib2 2026-04-11 16:12 2.2M
20260411T12Z_MSC_GDPS_WindGust-Min_AGL-10m_LatLon0.15_PT015H.grib2 2026-04-11 16:12 2.2M
20260411T12Z_MSC_GDPS_WindGust_AGL-10m_LatLon0.15_PT015H.grib2 2026-04-11 16:12 2.2M
20260411T12Z_MSC_GDPS_WindSpeed_AGL-10m_LatLon0.15_PT015H.grib2 2026-04-11 16:12 1.1M
20260411T12Z_MSC_GDPS_WindSpeed_AGL-120m_LatLon0.15_PT015H.grib2 2026-04-11 16:12 1.2M
20260411T12Z_MSC_GDPS_WindSpeed_AGL-40m_LatLon0.15_PT015H.grib2 2026-04-11 16:12 1.2M
20260411T12Z_MSC_GDPS_WindSpeed_AGL-80m_LatLon0.15_PT015H.grib2 2026-04-11 16:12 1.2M
20260411T12Z_MSC_GDPS_WindSpeed_IsbL-0001_LatLon0.15_PT015H.grib2 2026-04-11 16:12 639K
20260411T12Z_MSC_GDPS_WindSpeed_IsbL-0005_LatLon0.15_PT015H.grib2 2026-04-11 16:12 613K
20260411T12Z_MSC_GDPS_WindSpeed_IsbL-0010_LatLon0.15_PT015H.grib2 2026-04-11 16:12 638K
20260411T12Z_MSC_GDPS_WindSpeed_IsbL-0020_LatLon0.15_PT015H.grib2 2026-04-11 16:12 881K
20260411T12Z_MSC_GDPS_WindSpeed_IsbL-0030_LatLon0.15_PT015H.grib2 2026-04-11 16:12 871K
20260411T12Z_MSC_GDPS_WindSpeed_IsbL-0050_LatLon0.15_PT015H.grib2 2026-04-11 16:12 922K
20260411T12Z_MSC_GDPS_WindSpeed_IsbL-0100_LatLon0.15_PT015H.grib2 2026-04-11 16:12 1.1M
20260411T12Z_MSC_GDPS_WindSpeed_IsbL-0150_LatLon0.15_PT015H.grib2 2026-04-11 16:12 1.0M
20260411T12Z_MSC_GDPS_WindSpeed_IsbL-0175_LatLon0.15_PT015H.grib2 2026-04-11 16:12 1.0M
20260411T12Z_MSC_GDPS_WindSpeed_IsbL-0200_LatLon0.15_PT015H.grib2 2026-04-11 16:12 1.1M
20260411T12Z_MSC_GDPS_WindSpeed_IsbL-0225_LatLon0.15_PT015H.grib2 2026-04-11 16:12 1.1M
20260411T12Z_MSC_GDPS_WindSpeed_IsbL-0250_LatLon0.15_PT015H.grib2 2026-04-11 16:12 1.1M
20260411T12Z_MSC_GDPS_WindSpeed_IsbL-0275_LatLon0.15_PT015H.grib2 2026-04-11 16:12 1.1M
20260411T12Z_MSC_GDPS_WindSpeed_IsbL-0300_LatLon0.15_PT015H.grib2 2026-04-11 16:12 1.1M
20260411T12Z_MSC_GDPS_WindSpeed_IsbL-0350_LatLon0.15_PT015H.grib2 2026-04-11 16:12 1.1M
20260411T12Z_MSC_GDPS_WindSpeed_IsbL-0400_LatLon0.15_PT015H.grib2 2026-04-11 16:12 1.1M
20260411T12Z_MSC_GDPS_WindSpeed_IsbL-0450_LatLon0.15_PT015H.grib2 2026-04-11 16:12 1.1M
20260411T12Z_MSC_GDPS_WindSpeed_IsbL-0500_LatLon0.15_PT015H.grib2 2026-04-11 16:12 1.1M
20260411T12Z_MSC_GDPS_WindSpeed_IsbL-0550_LatLon0.15_PT015H.grib2 2026-04-11 16:12 1.1M
20260411T12Z_MSC_GDPS_WindSpeed_IsbL-0600_LatLon0.15_PT015H.grib2 2026-04-11 16:12 1.1M
20260411T12Z_MSC_GDPS_WindSpeed_IsbL-0650_LatLon0.15_PT015H.grib2 2026-04-11 16:12 1.4M
20260411T12Z_MSC_GDPS_WindSpeed_IsbL-0700_LatLon0.15_PT015H.grib2 2026-04-11 16:12 1.5M
20260411T12Z_MSC_GDPS_WindSpeed_IsbL-0750_LatLon0.15_PT015H.grib2 2026-04-11 16:12 1.5M
20260411T12Z_MSC_GDPS_WindSpeed_IsbL-0800_LatLon0.15_PT015H.grib2 2026-04-11 16:12 1.6M
20260411T12Z_MSC_GDPS_WindSpeed_IsbL-0850_LatLon0.15_PT015H.grib2 2026-04-11 16:12 1.7M
20260411T12Z_MSC_GDPS_WindSpeed_IsbL-0875_LatLon0.15_PT015H.grib2 2026-04-11 16:12 1.8M
20260411T12Z_MSC_GDPS_WindSpeed_IsbL-0900_LatLon0.15_PT015H.grib2 2026-04-11 16:12 1.8M
20260411T12Z_MSC_GDPS_WindSpeed_IsbL-0925_LatLon0.15_PT015H.grib2 2026-04-11 16:12 1.9M
20260411T12Z_MSC_GDPS_WindSpeed_IsbL-0950_LatLon0.15_PT015H.grib2 2026-04-11 16:12 1.9M
20260411T12Z_MSC_GDPS_WindSpeed_IsbL-0970_LatLon0.15_PT015H.grib2 2026-04-11 16:12 1.9M
20260411T12Z_MSC_GDPS_WindSpeed_IsbL-0985_LatLon0.15_PT015H.grib2 2026-04-11 16:12 1.8M
20260411T12Z_MSC_GDPS_WindSpeed_IsbL-1000_LatLon0.15_PT015H.grib2 2026-04-11 16:12 1.8M
20260411T12Z_MSC_GDPS_WindSpeed_IsbL-1015_LatLon0.15_PT015H.grib2 2026-04-11 16:12 1.8M
20260411T12Z_MSC_GDPS_WindU_AGL-10m_LatLon0.15_PT015H.grib2 2026-04-11 16:12 1.3M
20260411T12Z_MSC_GDPS_WindU_AGL-120m_LatLon0.15_PT015H.grib2 2026-04-11 16:12 965K
20260411T12Z_MSC_GDPS_WindU_AGL-40m_LatLon0.15_PT015H.grib2 2026-04-11 16:12 959K
20260411T12Z_MSC_GDPS_WindU_AGL-80m_LatLon0.15_PT015H.grib2 2026-04-11 16:12 964K
20260411T12Z_MSC_GDPS_WindU_IsbL-0001_LatLon0.15_PT015H.grib2 2026-04-11 16:12 498K
20260411T12Z_MSC_GDPS_WindU_IsbL-0005_LatLon0.15_PT015H.grib2 2026-04-11 16:12 694K
20260411T12Z_MSC_GDPS_WindU_IsbL-0010_LatLon0.15_PT015H.grib2 2026-04-11 16:12 711K
20260411T12Z_MSC_GDPS_WindU_IsbL-0020_LatLon0.15_PT015H.grib2 2026-04-11 16:12 675K
20260411T12Z_MSC_GDPS_WindU_IsbL-0030_LatLon0.15_PT015H.grib2 2026-04-11 16:12 744K
20260411T12Z_MSC_GDPS_WindU_IsbL-0050_LatLon0.15_PT015H.grib2 2026-04-11 16:12 785K
20260411T12Z_MSC_GDPS_WindU_IsbL-0100_LatLon0.15_PT015H.grib2 2026-04-11 16:12 932K
20260411T12Z_MSC_GDPS_WindU_IsbL-0150_LatLon0.15_PT015H.grib2 2026-04-11 16:12 1.0M
20260411T12Z_MSC_GDPS_WindU_IsbL-0175_LatLon0.15_PT015H.grib2 2026-04-11 16:12 816K
20260411T12Z_MSC_GDPS_WindU_IsbL-0200_LatLon0.15_PT015H.grib2 2026-04-11 16:12 847K
20260411T12Z_MSC_GDPS_WindU_IsbL-0225_LatLon0.15_PT015H.grib2 2026-04-11 16:12 917K
20260411T12Z_MSC_GDPS_WindU_IsbL-0250_LatLon0.15_PT015H.grib2 2026-04-11 16:12 919K
20260411T12Z_MSC_GDPS_WindU_IsbL-0275_LatLon0.15_PT015H.grib2 2026-04-11 16:12 886K
20260411T12Z_MSC_GDPS_WindU_IsbL-0300_LatLon0.15_PT015H.grib2 2026-04-11 16:12 874K
20260411T12Z_MSC_GDPS_WindU_IsbL-0350_LatLon0.15_PT015H.grib2 2026-04-11 16:12 894K
20260411T12Z_MSC_GDPS_WindU_IsbL-0400_LatLon0.15_PT015H.grib2 2026-04-11 16:12 896K
20260411T12Z_MSC_GDPS_WindU_IsbL-0450_LatLon0.15_PT015H.grib2 2026-04-11 16:12 896K
20260411T12Z_MSC_GDPS_WindU_IsbL-0500_LatLon0.15_PT015H.grib2 2026-04-11 16:12 898K
20260411T12Z_MSC_GDPS_WindU_IsbL-0550_LatLon0.15_PT015H.grib2 2026-04-11 16:12 1.1M
20260411T12Z_MSC_GDPS_WindU_IsbL-0600_LatLon0.15_PT015H.grib2 2026-04-11 16:12 1.1M
20260411T12Z_MSC_GDPS_WindU_IsbL-0650_LatLon0.15_PT015H.grib2 2026-04-11 16:12 1.2M
20260411T12Z_MSC_GDPS_WindU_IsbL-0700_LatLon0.15_PT015H.grib2 2026-04-11 16:12 1.2M
20260411T12Z_MSC_GDPS_WindU_IsbL-0750_LatLon0.15_PT015H.grib2 2026-04-11 16:12 1.3M
20260411T12Z_MSC_GDPS_WindU_IsbL-0800_LatLon0.15_PT015H.grib2 2026-04-11 16:12 1.3M
20260411T12Z_MSC_GDPS_WindU_IsbL-0850_LatLon0.15_PT015H.grib2 2026-04-11 16:12 1.4M
20260411T12Z_MSC_GDPS_WindU_IsbL-0875_LatLon0.15_PT015H.grib2 2026-04-11 16:12 1.4M
20260411T12Z_MSC_GDPS_WindU_IsbL-0900_LatLon0.15_PT015H.grib2 2026-04-11 16:12 1.4M
20260411T12Z_MSC_GDPS_WindU_IsbL-0925_LatLon0.15_PT015H.grib2 2026-04-11 16:12 1.4M
20260411T12Z_MSC_GDPS_WindU_IsbL-0950_LatLon0.15_PT015H.grib2 2026-04-11 16:12 1.4M
20260411T12Z_MSC_GDPS_WindU_IsbL-0970_LatLon0.15_PT015H.grib2 2026-04-11 16:12 1.4M
20260411T12Z_MSC_GDPS_WindU_IsbL-0985_LatLon0.15_PT015H.grib2 2026-04-11 16:12 1.4M
20260411T12Z_MSC_GDPS_WindU_IsbL-1000_LatLon0.15_PT015H.grib2 2026-04-11 16:12 1.4M
20260411T12Z_MSC_GDPS_WindU_IsbL-1015_LatLon0.15_PT015H.grib2 2026-04-11 16:12 1.3M
20260411T12Z_MSC_GDPS_WindV_AGL-10m_LatLon0.15_PT015H.grib2 2026-04-11 16:12 1.5M
20260411T12Z_MSC_GDPS_WindV_AGL-120m_LatLon0.15_PT015H.grib2 2026-04-11 16:12 967K
20260411T12Z_MSC_GDPS_WindV_AGL-40m_LatLon0.15_PT015H.grib2 2026-04-11 16:12 1.2M
20260411T12Z_MSC_GDPS_WindV_AGL-80m_LatLon0.15_PT015H.grib2 2026-04-11 16:12 966K
20260411T12Z_MSC_GDPS_WindV_IsbL-0001_LatLon0.15_PT015H.grib2 2026-04-11 16:12 548K
20260411T12Z_MSC_GDPS_WindV_IsbL-0005_LatLon0.15_PT015H.grib2 2026-04-11 16:12 851K
20260411T12Z_MSC_GDPS_WindV_IsbL-0010_LatLon0.15_PT015H.grib2 2026-04-11 16:12 885K
20260411T12Z_MSC_GDPS_WindV_IsbL-0020_LatLon0.15_PT015H.grib2 2026-04-11 16:12 872K
20260411T12Z_MSC_GDPS_WindV_IsbL-0030_LatLon0.15_PT015H.grib2 2026-04-11 16:12 865K
20260411T12Z_MSC_GDPS_WindV_IsbL-0050_LatLon0.15_PT015H.grib2 2026-04-11 16:12 918K
20260411T12Z_MSC_GDPS_WindV_IsbL-0100_LatLon0.15_PT015H.grib2 2026-04-11 16:12 862K
20260411T12Z_MSC_GDPS_WindV_IsbL-0150_LatLon0.15_PT015H.grib2 2026-04-11 16:12 1.0M
20260411T12Z_MSC_GDPS_WindV_IsbL-0175_LatLon0.15_PT015H.grib2 2026-04-11 16:12 814K
20260411T12Z_MSC_GDPS_WindV_IsbL-0200_LatLon0.15_PT015H.grib2 2026-04-11 16:12 844K
20260411T12Z_MSC_GDPS_WindV_IsbL-0225_LatLon0.15_PT015H.grib2 2026-04-11 16:12 915K
20260411T12Z_MSC_GDPS_WindV_IsbL-0250_LatLon0.15_PT015H.grib2 2026-04-11 16:12 916K
20260411T12Z_MSC_GDPS_WindV_IsbL-0275_LatLon0.15_PT015H.grib2 2026-04-11 16:12 939K
20260411T12Z_MSC_GDPS_WindV_IsbL-0300_LatLon0.15_PT015H.grib2 2026-04-11 16:12 929K
20260411T12Z_MSC_GDPS_WindV_IsbL-0350_LatLon0.15_PT015H.grib2 2026-04-11 16:12 887K
20260411T12Z_MSC_GDPS_WindV_IsbL-0400_LatLon0.15_PT015H.grib2 2026-04-11 16:12 890K
20260411T12Z_MSC_GDPS_WindV_IsbL-0450_LatLon0.15_PT015H.grib2 2026-04-11 16:12 888K
20260411T12Z_MSC_GDPS_WindV_IsbL-0500_LatLon0.15_PT015H.grib2 2026-04-11 16:12 1.1M
20260411T12Z_MSC_GDPS_WindV_IsbL-0550_LatLon0.15_PT015H.grib2 2026-04-11 16:12 1.1M
20260411T12Z_MSC_GDPS_WindV_IsbL-0600_LatLon0.15_PT015H.grib2 2026-04-11 16:12 1.1M
20260411T12Z_MSC_GDPS_WindV_IsbL-0650_LatLon0.15_PT015H.grib2 2026-04-11 16:12 1.2M
20260411T12Z_MSC_GDPS_WindV_IsbL-0700_LatLon0.15_PT015H.grib2 2026-04-11 16:12 1.2M
20260411T12Z_MSC_GDPS_WindV_IsbL-0750_LatLon0.15_PT015H.grib2 2026-04-11 16:12 1.3M
20260411T12Z_MSC_GDPS_WindV_IsbL-0800_LatLon0.15_PT015H.grib2 2026-04-11 16:12 1.3M
20260411T12Z_MSC_GDPS_WindV_IsbL-0850_LatLon0.15_PT015H.grib2 2026-04-11 16:12 1.4M
20260411T12Z_MSC_GDPS_WindV_IsbL-0875_LatLon0.15_PT015H.grib2 2026-04-11 16:12 1.4M
20260411T12Z_MSC_GDPS_WindV_IsbL-0900_LatLon0.15_PT015H.grib2 2026-04-11 16:12 1.4M
20260411T12Z_MSC_GDPS_WindV_IsbL-0925_LatLon0.15_PT015H.grib2 2026-04-11 16:12 1.4M
20260411T12Z_MSC_GDPS_WindV_IsbL-0950_LatLon0.15_PT015H.grib2 2026-04-11 16:12 1.4M
20260411T12Z_MSC_GDPS_WindV_IsbL-0970_LatLon0.15_PT015H.grib2 2026-04-11 16:12 1.4M
20260411T12Z_MSC_GDPS_WindV_IsbL-0985_LatLon0.15_PT015H.grib2 2026-04-11 16:12 1.4M
20260411T12Z_MSC_GDPS_WindV_IsbL-1000_LatLon0.15_PT015H.grib2 2026-04-11 16:12 1.7M
20260411T12Z_MSC_GDPS_WindV_IsbL-1015_LatLon0.15_PT015H.grib2 2026-04-11 16:12 1.6M